Вернуться в каталог

COSMOS 2251 DEB

АктивенLEO
NORAD 37484·DEBRIS·🇷🇺 Russia

Запущен Jun 16, 1993 с Plesetsk Cosmodrome

Loading…

Ближайшие Пролёты (ближайшие 24 часа)

TLE

УстаревающийSource: Space-Track

Эпоха: Sep 8, 2026, 04:29 UTC

1 37484U 93036BLM 26251.18680735  .00001426  00000-0  43052-3 0  9991
2 37484  73.8206  62.0379 0037860  45.9700  69.6394 14.42981522692642

Отслеживайте COSMOS 2251 DEB в реальном времени с AllMySat

Download on the App Store